Time,TemperatureF,DewpointF,PressureIn,WindDirection,WindDirectionDegrees,WindSpeedMPH,WindSpeedGustMPH,Humidity,HourlyPrecipIn,Conditions,Clouds,dailyrainin,SoftwareType,DateUTC
2013-02-23 00:01:00,22.0,19.5,30.02,WSW,250,3.0,27.0,90,0.00,,---,0.00,VWS V14.01,2013-02-23 06:01:00,
2013-02-23 00:31:00,21.5,19.5,30.02,West,266,0.0,27.0,92,0.00,,---,0.00,VWS V14.01,2013-02-23 06:31:00,
2013-02-23 01:01:00,21.3,19.3,30.02,WSW,239,15.0,24.0,92,0.00,,---,0.00,VWS V14.01,2013-02-23 07:01:00,
2013-02-23 01:31:00,21.1,19.1,30.01,West,264,3.0,24.0,92,0.00,,---,0.00,VWS V14.01,2013-02-23 07:31:00,
2013-02-23 02:01:00,21.1,19.1,30.01,WSW,242,6.0,18.0,92,0.00,,---,0.00,VWS V14.01,2013-02-23 08:01:00,
2013-02-23 02:31:00,20.8,19.1,30.01,SW,233,0.0,18.0,93,0.00,,---,0.00,VWS V14.01,2013-02-23 08:31:00,
2013-02-23 03:01:00,20.6,19.4,30.00,WNW,284,6.0,18.0,95,0.00,,---,0.00,VWS V14.01,2013-02-23 09:01:00,
2013-02-23 03:31:00,19.8,18.6,30.00,WSW,254,9.0,21.0,95,0.00,,---,0.00,VWS V14.01,2013-02-23 09:31:00,
2013-02-23 04:01:00,18.8,17.9,29.99,WSW,257,6.0,21.0,96,0.00,,---,0.00,VWS V14.01,2013-02-23 10:01:00,
2013-02-23 04:31:00,17.9,17.2,30.00,SW,222,3.0,9.0,97,0.00,,---,0.00,VWS V14.01,2013-02-23 10:31:00,
2013-02-23 05:01:00,17.0,16.5,30.00,WSW,256,0.0,9.0,98,0.00,,---,0.00,VWS V14.01,2013-02-23 11:01:00,
2013-02-23 05:31:00,16.3,16.1,30.01,SW,236,0.0,9.0,99,0.00,,---,0.00,VWS V14.01,2013-02-23 11:31:00,
2013-02-23 06:01:00,15.4,15.2,30.01,WSW,248,3.0,12.0,99,0.00,,---,0.00,VWS V14.01,2013-02-23 12:01:00,
2013-02-23 06:31:00,14.6,14.6,30.01,WSW,244,0.0,9.0,100,0.00,,---,0.00,VWS V14.01,2013-02-23 12:31:00,
2013-02-23 07:01:00,14.2,14.2,30.01,West,261,0.0,6.0,100,0.00,,---,0.00,VWS V14.01,2013-02-23 13:01:00,
2013-02-23 07:31:00,13.8,13.8,30.00,SW,215,0.0,9.0,100,0.00,,---,0.00,VWS V14.01,2013-02-23 13:31:00,
2013-02-23 08:01:00,16.1,15.6,30.00,SW,225,3.0,6.0,98,0.00,,---,0.00,VWS V14.01,2013-02-23 14:01:00,
2013-02-23 08:31:00,18.3,16.9,30.00,WSW,245,3.0,15.0,94,0.00,,---,0.00,VWS V14.01,2013-02-23 14:31:00,
2013-02-23 09:01:00,20.1,17.6,30.00,SSW,208,6.0,12.0,90,0.00,,---,0.00,VWS V14.01,2013-02-23 15:01:00,
2013-02-23 09:31:00,21.7,18.7,30.01,West,269,9.0,12.0,88,0.00,,---,0.00,VWS V14.01,2013-02-23 15:31:00,
2013-02-23 10:01:00,22.8,19.2,30.00,WSW,244,9.0,18.0,86,0.00,,---,0.00,VWS V14.01,2013-02-23 16:01:00,
2013-02-23 10:31:00,24.0,19.9,30.01,SSW,211,9.0,21.0,84,0.00,,---,0.00,VWS V14.01,2013-02-23 16:31:00,
2013-02-23 11:01:00,26.0,21.3,30.00,WSW,241,6.0,21.0,82,0.00,,---,0.00,VWS V14.01,2013-02-23 17:01:00,
2013-02-23 11:31:00,28.2,21.9,30.00,NW,325,6.0,24.0,77,0.01,,---,0.01,VWS V14.01,2013-02-23 17:31:00,
2013-02-23 12:01:00,30.5,22.6,29.99,West,261,6.0,21.0,72,0.01,,---,0.01,VWS V14.01,2013-02-23 18:01:00,
2013-02-23 12:31:00,30.8,22.5,29.98,WNW,282,6.0,24.0,71,0.02,,---,0.02,VWS V14.01,2013-02-23 18:31:00,
2013-02-23 13:01:00,31.1,22.8,29.97,SSW,198,12.0,21.0,71,0.02,,---,0.03,VWS V14.01,2013-02-23 19:01:00,
2013-02-23 13:31:00,32.0,23.0,29.97,SSW,205,6.0,21.0,69,0.02,,---,0.03,VWS V14.01,2013-02-23 19:31:00,
2013-02-23 14:01:00,32.9,23.5,29.96,NW,305,6.0,18.0,68,0.02,,---,0.04,VWS V14.01,2013-02-23 20:01:00,
2013-02-23 14:31:00,33.3,23.9,29.95,West,263,3.0,21.0,68,0.01,,---,0.04,VWS V14.01,2013-02-23 20:31:00,
2013-02-23 15:01:00,34.0,24.2,29.95,WSW,240,9.0,24.0,67,0.02,,---,0.05,VWS V14.01,2013-02-23 21:01:00,
2013-02-23 15:31:00,34.4,25.0,29.95,WSW,248,18.0,24.0,68,0.01,,---,0.05,VWS V14.01,2013-02-23 21:31:00,
2013-02-23 16:01:00,34.4,25.0,29.95,SSW,200,9.0,21.0,68,0.02,,---,0.06,VWS V14.01,2013-02-23 22:01:00,
2013-02-23 16:31:00,33.9,24.5,29.94,SSW,209,3.0,18.0,68,0.01,,---,0.06,VWS V14.01,2013-02-23 22:31:00,
2013-02-23 17:01:00,34.1,25.0,29.94,SSW,200,9.0,18.0,69,0.01,,---,0.06,VWS V14.01,2013-02-23 23:01:00,
2013-02-23 17:31:00,31.7,24.0,29.94,South,169,3.0,18.0,73,0.00,,---,0.06,VWS V14.01,2013-02-23 23:31:00,
2013-02-23 18:01:00,29.9,23.9,29.94,SSE,155,3.0,12.0,78,0.00,,---,0.06,VWS V14.01,2013-02-24 00:01:00,
2013-02-23 18:31:00,28.7,23.6,29.94,SSE,168,3.0,12.0,81,0.00,,---,0.06,VWS V14.01,2013-02-24 00:31:00,
2013-02-23 19:01:00,28.0,23.2,29.94,SE,133,6.0,9.0,82,0.00,,---,0.06,VWS V14.01,2013-02-24 01:01:00,
2013-02-23 19:31:00,27.3,22.8,29.95,South,182,3.0,9.0,83,0.00,,---,0.06,VWS V14.01,2013-02-24 01:31:00,
2013-02-23 20:01:00,26.3,22.4,29.95,South,178,0.0,6.0,85,0.00,,---,0.06,VWS V14.01,2013-02-24 02:01:00,
2013-02-23 20:31:00,25.8,22.2,29.96,South,178,0.0,6.0,86,0.00,,---,0.06,VWS V14.01,2013-02-24 02:31:00,
2013-02-23 21:01:00,24.8,21.8,29.96,South,178,3.0,3.0,88,0.00,,---,0.06,VWS V14.01,2013-02-24 03:01:00,
2013-02-23 21:31:00,24.7,21.4,29.97,SSE,167,3.0,6.0,87,0.00,,---,0.06,VWS V14.01,2013-02-24 03:31:00,
2013-02-23 22:01:00,23.8,21.0,29.99,SSE,167,0.0,6.0,89,0.00,,---,0.06,VWS V14.01,2013-02-24 04:01:00,
2013-02-23 22:31:00,23.2,20.7,29.99,SSE,167,0.0,6.0,90,0.00,,---,0.06,VWS V14.01,2013-02-24 04:31:00,
2013-02-23 23:01:00,22.7,20.5,29.98,SSE,167,0.0,6.0,91,0.00,,---,0.06,VWS V14.01,2013-02-24 05:01:00,
2013-02-23 23:31:00,22.1,19.9,29.99,SSE,167,0.0,6.0,91,0.00,,---,0.06,VWS V14.01,2013-02-24 05:31:00,